DW2633 Weather Reports


time (UTC)temp
C
wind
direction
speed
KPH
gust
KPH
rain 1hr
cm
rain 24hr
cm
rain mn
cm
humidity
%
barometer
mb
20260906103051 16 26 8.0 0.0 0.00 0.00 0.00 84 1013.5
20260906102546 16 26 8.0 0.0 0.00 0.00 0.00 82 1013.4
20260906102044 16 47 8.0 0.0 0.00 0.00 0.00 82 1013.3
20260906101544 16 78 9.7 0.0 0.00 0.00 0.00 84 1013.2
20260906101043 16 57 11.3 0.0 0.00 0.00 0.00 83 1013.1
20260906100542 16 61 9.7 0.0 0.00 0.00 0.00 84 1013.2
20260906100055 16 28 8.0 0.0 0.00 0.00 0.00 84 1013.2
20260906095541 16 34 6.4 0.0 0.00 0.00 0.00 84 1013.2
20260906095041 16 27 8.0 0.0 0.00 0.00 0.00 84 1013.1
20260906094549 16 59 8.0 0.0 0.00 0.00 0.00 83 1013.1
20260906094040 16 53 8.0 0.0 0.00 0.00 0.00 84 1013.1
20260906093540 16 42 9.7 0.0 0.00 0.00 0.00 86 1013.1
20260906093041 16 20 9.7 0.0 0.00 0.00 0.00 86 1013.1
20260906092539 16 27 9.7 0.0 0.00 0.00 0.00 85 1013.1
20260906092038 16 29 11.3 0.0 0.00 0.00 0.00 86 1013.0
20260906091539 16 5 11.3 0.0 0.00 0.00 0.00 85 1012.9
20260906091037 16 5 11.3 0.0 0.00 0.00 0.00 86 1012.9
20260906090535 16 9 11.3 0.0 0.00 0.00 0.00 86 1012.8
20260906090035 16 9 9.7 0.0 0.00 0.00 0.00 86 1012.7
20260906085534 16 48 8.0 0.0 0.00 0.00 0.00 85 1012.7
20260906085035 16 46 8.0 0.0 0.00 0.00 0.00 85 1012.8
20260906084532 16 29 8.0 0.0 0.00 0.00 0.00 84 1012.8
20260906084032 16 32 9.7 0.0 0.00 0.00 0.00 85 1012.7
20260906083531 16 40 9.7 0.0 0.00 0.00 0.00 85 1012.6
20260906083031 16 5 8.0 0.0 0.00 0.00 0.00 85 1012.6
20260906082531 16 11 8.0 0.0 0.00 0.00 0.00 84 1012.5
20260906082031 16 52 8.0 0.0 0.00 0.00 0.00 85 1012.5
20260906081531 16 30 8.0 0.0 0.00 0.00 0.00 86 1012.4
20260906081030 16 34 8.0 0.0 0.00 0.00 0.00 86 1012.3
20260906080530 16 59 8.0 0.0 0.00 0.00 0.00 84 1012.4
20260906080029 16 37 8.0 0.0 0.00 0.00 0.00 85 1012.4
20260906075529 17 46 8.0 0.0 0.00 0.00 0.00 85 1012.5
20260906075029 17 10 8.0 0.0 0.00 0.00 0.00 86 1012.4
20260906074529 17 44 9.7 0.0 0.00 0.00 0.00 87 1012.3
20260906074028 17 28 9.7 0.0 0.00 0.00 0.00 86 1012.3
20260906073528 17 28 8.0 0.0 0.00 0.00 0.00 88 1012.2
20260906073027 16 49 8.0 0.0 0.00 0.00 0.00 86 1012.3
20260906072527 16 55 6.4 0.0 0.00 0.00 0.00 87 1012.2
20260906072026 16 53 6.4 0.0 0.00 0.00 0.00 87 1012.3
20260906071526 16 57 4.8 0.0 0.00 0.00 0.00 87 1012.3
20260906071026 16 49 4.8 0.0 0.00 0.00 0.00 86 1012.3
20260906070526 16 66 6.4 0.0 0.00 0.00 0.00 86 1012.2
20260906070025 16 69 6.4 0.0 0.00 0.00 0.00 86 1012.2
20260906065524 16 53 4.8 0.0 0.00 0.00 0.00 86 1012.2
20260906065028 16 73 4.8 0.0 0.00 0.00 0.00 86 1012.2
20260906064523 16 59 4.8 0.0 0.00 0.00 0.00 85 1012.1
20260906064027 17 60 6.4 0.0 0.00 0.00 0.00 86 1012.2
20260906063524 17 46 8.0 0.0 0.00 0.00 0.00 85 1012.2
20260906063029 17 59 8.0 0.0 0.00 0.00 0.00 85 1012.2
20260906062522 17 67 8.0 0.0 0.00 0.00 0.00 85 1012.2
20260906062022 17 61 6.4 0.0 0.00 0.00 0.00 85 1012.2
20260906061521 17 63 8.0 0.0 0.00 0.00 0.00 85 1012.3
20260906061019 17 58 6.4 0.0 0.00 0.00 0.00 84 1012.3
20260906060519 17 51 6.4 0.0 0.00 0.00 0.00 84 1012.2
20260906060021 17 59 6.4 0.0 0.00 0.00 0.00 83 1012.2
20260906055518 17 53 8.0 0.0 0.00 0.00 0.00 83 1012.2
20260906055018 17 52 6.4 0.0 0.00 0.00 0.00 83 1012.3
20260906054525 17 61 6.4 0.0 0.00 0.00 0.00 83 1012.3
20260906054017 17 36 8.0 0.0 0.00 0.00 0.00 84 1012.4
20260906053517 17 32 8.0 0.0 0.00 0.00 0.00 83 1012.5
20260906053018 17 56 6.4 0.0 0.00 0.00 0.00 83 1012.5
20260906052517 17 53 4.8 0.0 0.00 0.00 0.00 82 1012.5
20260906052017 17 57 4.8 0.0 0.00 0.00 0.00 82 1012.5
20260906051519 17 82 4.8 0.0 0.00 0.00 0.00 82 1012.5
20260906051014 17 59 6.4 0.0 0.00 0.00 0.00 83 1012.5
20260906050515 17 23 6.4 0.0 0.00 0.00 0.00 83 1012.4
20260906050017 17 29 6.4 0.0 0.00 0.00 0.00 83 1012.5
20260906045514 17 73 6.4 0.0 0.00 0.00 0.00 82 1012.5
20260906045012 17 62 6.4 0.0 0.00 0.00 0.00 82 1012.5
20260906044512 17 73 6.4 0.0 0.00 0.00 0.00 81 1012.6
20260906044012 17 64 8.0 0.0 0.00 0.00 0.00 81 1012.5
20260906043517 17 34 8.0 0.0 0.00 0.00 0.00 82 1012.5
20260906043011 17 38 8.0 0.0 0.00 0.00 0.00 83 1012.5
20260906042510 17 40 8.0 0.0 0.00 0.00 0.00 82 1012.6
20260906042011 17 29 8.0 0.0 0.00 0.00 0.00 82 1012.5
20260906041510 17 36 9.7 0.0 0.00 0.00 0.00 82 1012.5
20260906041009 17 26 9.7 0.0 0.00 0.00 0.00 83 1012.6
20260906040508 17 43 8.0 0.0 0.00 0.00 0.00 82 1012.6
20260906040007 17 55 8.0 0.0 0.00 0.00 0.00 81 1012.5
20260906035506 17 15 8.0 0.0 0.00 0.00 0.00 81 1012.5
20260906035010 17 60 9.7 0.0 0.00 0.00 0.00 79 1012.4
20260906034506 17 54 9.7 0.0 0.00 0.00 0.00 80 1012.4
20260906034005 17 49 9.7 0.0 0.00 0.00 0.00 81 1012.3
20260906033505 17 31 9.7 0.0 0.00 0.00 0.00 79 1012.1
20260906033005 17 65 9.7 0.0 0.00 0.00 0.00 81 1012.1
20260906032506 17 61 9.7 0.0 0.00 0.00 0.00 79 1012.1
20260906032005 17 61 9.7 0.0 0.00 0.00 0.00 79 1012.1
20260906031513 18 79 11.3 0.0 0.00 0.00 0.00 79 1012.1
20260906031007 18 65 11.3 0.0 0.00 0.00 0.00 79 1012.2
20260906030504 17 55 8.0 0.0 0.00 0.00 0.00 79 1012.1
20260906030006 18 32 6.4 0.0 0.00 0.00 0.00 80 1012.0
20260906025505 18 73 6.4 0.0 0.00 0.00 0.00 79 1012.0
20260906025002 18 98 6.4 0.0 0.00 0.00 0.00 79 1011.9
20260906024506 18 78 6.4 0.0 0.00 0.00 0.00 79 1011.9
20260906024002 18 61 4.8 0.0 0.00 0.00 0.00 79 1011.8
20260906023501 18 82 4.8 0.0 0.00 0.00 0.00 79 1011.9
20260906023001 18 88 6.4 0.0 0.00 0.00 0.00 79 1011.8
20260906022501 18 71 4.8 0.0 0.00 0.00 0.00 79 1011.9
20260906022002 18 69 4.8 0.0 0.00 0.00 0.00 80 1011.9
20260906021501 18 79 4.8 0.0 0.00 0.00 0.00 80 1011.9
20260906021059 18 87 4.8 0.0 0.00 0.00 0.00 80 1011.8
20260906020600 18 70 3.2 0.0 0.00 0.00 0.00 81 1011.8
20260906020101 18 81 3.2 0.0 0.00 0.00 0.00 82 1011.7
20260906015559 18 111 3.2 0.0 0.00 0.00 0.00 82 1011.7
20260906015059 18 91 4.8 0.0 0.00 0.00 0.00 83 1011.8
20260906014559 18 59 4.8 0.0 0.00 0.00 0.00 84 1011.7
20260906014059 18 62 3.2 0.0 0.00 0.00 0.00 85 1011.6
20260906013602 18 63 1.6 0.0 0.00 0.00 0.00 86 1011.5
20260906013105 18 84 1.6 0.0 0.00 0.00 0.00 85 1011.5
20260906012559 18 119 0.0 0.0 0.00 0.00 0.00 85 1011.6
20260906012058 18 118 0.0 0.0 0.00 0.00 0.00 85 1011.6
20260906011602 18 118 0.0 0.0 0.00 0.00 0.00 85 1011.6
20260906011058 18 118 0.0 0.0 0.00 0.00 0.00 85 1011.6
20260906010557 18 118 1.6 0.0 0.00 0.00 0.00 85 1011.6
20260906010056 18 118 1.6 0.0 0.00 0.00 0.00 85 1011.5
20260906005558 18 119 3.2 0.0 0.00 0.00 0.00 85 1011.4
20260906005056 18 119 4.8 0.0 0.00 0.00 0.00 84 1011.4
20260906004557 18 118 4.8 0.0 0.00 0.00 0.00 85 1011.4
20260906004055 19 101 4.8 0.0 0.00 0.00 0.00 84 1011.4
20260906003555 19 42 3.2 0.0 0.00 0.00 0.00 83 1011.4
20260906003055 19 51 3.2 0.0 0.00 0.00 0.00 83 1011.4
20260906002554 19 80 4.8 0.0 0.00 0.00 0.00 83 1011.3
20260906002058 19 42 6.4 0.0 0.00 0.00 0.00 83 1011.3
20260906001555 19 57 6.4 0.0 0.00 0.00 0.00 82 1011.4
20260906001053 19 355 6.4 0.0 0.00 0.00 0.00 82 1011.2
20260906000556 19 13 6.4 0.0 0.00 0.00 0.00 82 1011.2
20260906000059 19 65 4.8 0.0 0.00 0.00 0.00 82 1011.2
20260905235552 19 5 4.8 0.0 0.00 0.00 0.00 81 1011.1
20260905235052 19 51 4.8 0.0 0.00 0.00 0.00 81 1011.1
20260905234556 19 360 4.8 0.0 0.00 0.00 0.00 81 1011.0
20260905234051 20 25 4.8 0.0 0.00 0.00 0.00 81 1010.9
20260905233551 20 59 4.8 0.0 0.00 0.00 0.00 81 1010.9
20260905233053 20 32 4.8 0.0 0.00 0.00 0.00 79 1010.9
20260905232551 20 13 4.8 0.0 0.00 0.00 0.00 80 1010.9
20260905232055 20 19 3.2 0.0 0.00 0.00 0.00 80 1010.9
20260905231551 20 22 3.2 0.0 0.00 0.00 0.00 80 1010.9
20260905231050 20 28 3.2 0.0 0.00 0.00 0.00 78 1011.0
20260905230555 20 71 3.2 0.0 0.00 0.00 0.00 78 1011.0
20260905230049 20 73 3.2 0.0 0.00 0.00 0.00 77 1011.1
20260905225550 20 96 4.8 0.0 0.00 0.00 0.00 77 1011.0
20260905225051 20 90 4.8 0.0 0.00 0.00 0.00 78 1010.9
20260905224549 20 58 4.8 0.0 0.00 0.00 0.00 78 1010.8
20260905224049 20 82 6.4 0.0 0.00 0.00 0.00 78 1010.8
20260905223548 20 78 8.0 0.0 0.00 0.00 0.00 77 1010.6
20260905223048 20 79 8.0 0.0 0.00 0.00 0.00 77 1010.6
20260905222548 20 53 8.0 0.0 0.00 0.00 0.00 76 1010.5
20260905222047 20 61 6.4 0.0 0.00 0.00 0.00 78 1010.5
20260905221549 20 42 6.4 0.0 0.00 0.00 0.00 77 1010.4
20260905221047 20 66 6.4 0.0 0.00 0.00 0.00 78 1010.4
20260905220547 20 59 6.4 0.0 0.00 0.00 0.00 78 1010.3
20260905220047 20 33 6.4 0.0 0.00 0.00 0.00 79 1010.3
20260905215547 20 63 6.4 0.0 0.00 0.00 0.00 78 1010.3
20260905215047 20 38 6.4 0.0 0.00 0.00 0.00 80 1010.3
20260905214550 20 30 6.4 0.0 0.00 0.00 0.00 80 1010.4
20260905214050 20 32 6.4 0.0 0.00 0.00 0.00 78 1010.4
20260905213546 20 41 8.0 0.0 0.00 0.00 0.00 76 1010.4
20260905213048 20 51 8.0 0.0 0.00 0.00 0.00 76 1010.4
20260905212546 20 56 8.0 0.0 0.00 0.00 0.00 77 1010.2
20260905212047 20 51 8.0 0.0 0.00 0.00 0.00 76 1010.3
20260905211602 20 57 8.0 0.0 0.00 0.00 0.00 74 1010.3
20260905211049 20 60 9.7 0.0 0.00 0.00 0.00 72 1010.3
20260905210545 20 61 11.3 0.0 0.00 0.00 0.00 73 1010.3
20260905210058 20 66 12.9 0.0 0.00 0.00 0.00 73 1010.5
20260905205545 21 86 14.5 0.0 0.00 0.00 0.00 74 1010.4
20260905205045 21 52 11.3 0.0 0.00 0.00 0.00 73 1010.4
20260905204547 21 61 8.0 0.0 0.00 0.00 0.00 74 1010.3
20260905204048 21 30 9.7 0.0 0.00 0.00 0.00 72 1010.3
20260905203545 21 42 9.7 0.0 0.00 0.00 0.00 73 1010.3
20260905203045 21 25 9.7 0.0 0.00 0.00 0.00 75 1010.2
20260905202545 21 31 8.0 0.0 0.00 0.00 0.00 73 1010.2
20260905202044 21 33 8.0 0.0 0.00 0.00 0.00 71 1010.2
20260905201551 21 5 8.0 0.0 0.00 0.00 0.00 73 1010.2
20260905201043 21 5 6.4 0.0 0.00 0.00 0.00 71 1010.2
20260905200544 21 27 8.0 0.0 0.00 0.00 0.00 70 1010.2
20260905200045 21 37 9.7 0.0 0.00 0.00 0.00 71 1010.2
20260905195543 21 20 8.0 0.0 0.00 0.00 0.00 70 1010.0
20260905195043 21 43 6.4 0.0 0.00 0.00 0.00 70 1010.0
20260905194543 21 49 6.4 0.0 0.00 0.00 0.00 69 1010.0
20260905194047 21 66 6.4 0.0 0.00 0.00 0.00 69 1010.0
20260905193545 21 29 6.4 0.0 0.00 0.00 0.00 71 1010.0
20260905193043 21 39 6.4 0.0 0.00 0.00 0.00 68 1010.0
20260905192543 21 68 6.4 0.0 0.00 0.00 0.00 71 1010.0
20260905192044 21 88 6.4 0.0 0.00 0.00 0.00 71 1010.0
20260905191542 21 77 6.4 0.0 0.00 0.00 0.00 72 1010.1
20260905191045 21 36 6.4 0.0 0.00 0.00 0.00 71 1010.1
20260905190542 21 55 9.7 0.0 0.00 0.00 0.00 73 1010.2
20260905190042 21 55 11.3 0.0 0.00 0.00 0.00 71 1010.2
20260905185542 21 49 11.3 0.0 0.00 0.00 0.00 70 1010.1
20260905185041 21 50 11.3 0.0 0.00 0.00 0.00 67 1010.1
20260905184541 21 61 9.7 0.0 0.00 0.00 0.00 67 1010.1
20260905184043 21 38 8.0 0.0 0.00 0.00 0.00 69 1010.0
20260905183541 21 67 8.0 0.0 0.00 0.00 0.00 71 1010.1
20260905183044 21 67 8.0 0.0 0.00 0.00 0.00 70 1010.1
20260905182540 21 50 8.0 0.0 0.00 0.00 0.00 69 1010.0
20260905182041 21 46 8.0 0.0 0.00 0.00 0.00 71 1010.0
20260905181541 21 55 8.0 0.0 0.00 0.00 0.00 69 1010.1
20260905181040 21 30 6.4 0.0 0.00 0.00 0.00 69 1010.0
20260905180540 22 26 6.4 0.0 0.00 0.00 0.00 68 1009.9
20260905180039 22 40 6.4 0.0 0.00 0.00 0.00 68 1009.9
20260905175539 21 355 4.8 0.0 0.00 0.00 0.00 70 1009.9
20260905175040 21 106 6.4 0.0 0.00 0.00 0.00 71 1009.8
20260905174537 21 120 8.0 0.0 0.00 0.00 0.00 73 1009.9
20260905174038 21 120 9.7 0.0 0.00 0.00 0.00 74 1010.0
20260905173541 20 123 11.3 0.0 0.00 0.00 0.00 75 1010.0
20260905173054 20 117 11.3 0.0 0.00 0.00 0.00 76 1010.0
20260905172537 20 116 11.3 0.0 0.00 0.00 0.00 76 1010.0
20260905172041 20 119 11.3 0.0 0.00 0.00 0.00 75 1010.0
20260905171539 21 106 11.3 0.0 0.00 0.00 0.00 73 1010.0
20260905171036 21 96 9.7 0.0 0.00 0.00 0.00 70 1009.9
20260905170536 21 69 4.8 0.0 0.00 0.00 0.00 69 1010.0
20260905170038 21 355 3.2 0.0 0.00 0.00 0.00 69 1009.9
20260905165536 21 355 4.8 0.0 0.00 0.00 0.00 70 1009.9
20260905165038 21 325 3.2 0.0 0.00 0.00 0.00 71 1009.9
20260905164535 21 340 3.2 0.0 0.00 0.00 0.00 69 1009.8
20260905164035 21 36 4.8 0.0 0.00 0.00 0.00 71 1009.9
20260905163534 21 103 4.8 0.0 0.00 0.00 0.00 71 1009.9
20260905163034 21 70 4.8 0.0 0.00 0.00 0.00 70 1009.8
20260905162534 21 55 4.8 0.0 0.00 0.00 0.00 70 1010.0
20260905162034 21 61 3.2 0.0 0.00 0.00 0.00 69 1010.0
20260905161535 21 348 3.2 0.0 0.00 0.00 0.00 70 1010.0
20260905161033 21 341 3.2 0.0 0.00 0.00 0.00 72 1010.0
20260905160533 21 360 1.6 0.0 0.00 0.00 0.00 71 1010.0
20260905160035 21 55 1.6 0.0 0.00 0.00 0.00 69 1010.0
20260905155531 21 9 3.2 0.0 0.00 0.00 0.00 71 1010.0
20260905155030 21 51 3.2 0.0 0.00 0.00 0.00 72 1010.0
20260905154534 21 346 3.2 0.0 0.00 0.00 0.00 71 1010.0
20260905154034 21 360 3.2 0.0 0.00 0.00 0.00 73 1010.1
20260905153529 21 360 3.2 0.0 0.00 0.00 0.00 71 1010.1
20260905153029 20 21 3.2 0.0 0.00 0.00 0.00 72 1010.0
20260905152529 20 24 3.2 0.0 0.00 0.00 0.00 71 1010.1
20260905152031 20 295 4.8 0.0 0.00 0.00 0.00 74 1010.0
20260905151528 20 292 6.4 0.0 0.00 0.00 0.00 74 1010.3
20260905151032 20 292 6.4 0.0 0.00 0.00 0.00 73 1010.2
20260905150526 20 302 6.4 0.0 0.00 0.00 0.00 73 1010.2
20260905150025 20 321 8.0 0.0 0.00 0.00 0.00 75 1010.3
20260905145525 20 327 8.0 0.0 0.00 0.00 0.00 75 1010.3
20260905145024 20 350 8.0 0.0 0.00 0.00 0.00 76 1010.3
20260905144524 20 355 6.4 0.0 0.00 0.00 0.00 74 1010.2
20260905144025 20 355 8.0 0.0 0.00 0.00 0.00 75 1010.2
20260905143523 20 336 8.0 0.0 0.00 0.00 0.00 76 1010.3
20260905143029 19 355 9.7 0.0 0.00 0.00 0.00 78 1010.3
20260905142523 19 5 9.7 0.0 0.00 0.00 0.00 76 1010.4
20260905142026 19 5 11.3 0.0 0.00 0.00 0.00 77 1010.4
20260905141528 19 5 11.3 0.0 0.00 0.00 0.00 77 1010.5
20260905141025 19 355 9.7 0.0 0.00 0.00 0.00 77 1010.5
20260905140524 19 347 9.7 0.0 0.00 0.00 0.00 76 1010.4
20260905140021 19 360 9.7 0.0 0.00 0.00 0.00 78 1010.4
20260905135521 18 360 9.7 0.0 0.00 0.00 0.00 78 1010.4
20260905135022 18 10 9.7 0.0 0.00 0.00 0.00 78 1010.5
20260905134521 18 355 8.0 0.0 0.00 0.00 0.00 78 1010.4
20260905134024 18 360 8.0 0.0 0.00 0.00 0.00 77 1010.5
20260905133521 18 342 8.0 0.0 0.00 0.00 0.00 79 1010.5
20260905133020 18 337 8.0 0.0 0.00 0.00 0.00 78 1010.7
20260905132520 18 355 8.0 0.0 0.00 0.00 0.00 78 1010.8
20260905132022 18 348 9.7 0.0 0.00 0.00 0.00 79 1010.9
20260905131524 18 355 9.7 0.0 0.00 0.00 0.00 78 1010.9
20260905131020 18 338 9.7 0.0 0.00 0.00 0.00 78 1010.8
20260905130520 18 355 9.7 0.0 0.00 0.00 0.00 79 1010.9
20260905130020 18 355 9.7 0.0 0.00 0.00 0.00 81 1010.8
20260905125519 18 355 11.3 0.0 0.00 0.00 0.00 81 1010.8
20260905125019 18 360 12.9 0.0 0.00 0.00 0.00 81 1010.8
20260905124529 18 344 12.9 0.0 0.00 0.00 0.00 81 1010.7
20260905124020 18 338 12.9 0.0 0.00 0.00 0.00 81 1010.6
20260905123517 18 342 12.9 0.0 0.00 0.00 0.00 82 1010.6
20260905123017 18 11 11.3 0.0 0.00 0.00 0.00 80 1010.6
20260905122517 18 355 9.7 0.0 0.00 0.00 0.00 80 1010.5
20260905122016 18 9 11.3 0.0 0.00 0.00 0.00 82 1010.5
20260905121516 18 45 11.3 0.0 0.00 0.00 0.00 82 1010.6
20260905121015 17 5 9.7 0.0 0.00 0.00 0.00 82 1010.5
20260905120514 17 21 8.0 0.0 0.00 0.00 0.00 81 1010.4
20260905120014 17 37 8.0 0.0 0.00 0.00 0.00 82 1010.2
20260905115515 17 355 8.0 0.0 0.00 0.00 0.00 81 1010.3
20260905115013 17 5 8.0 0.0 0.00 0.00 0.00 83 1010.2
20260905114512 17 44 8.0 0.0 0.00 0.00 0.00 82 1010.1
20260905114015 17 24 8.0 0.0 0.00 0.00 0.00 83 1009.9
20260905113512 17 21 6.4 0.0 0.00 0.00 0.00 83 1010.0
20260905113011 17 61 6.4 0.0 0.00 0.00 0.00 84 1009.9
20260905112512 16 36 4.8 0.0 0.00 0.00 0.00 83 1009.8
20260905112011 16 26 4.8 0.0 0.00 0.00 0.00 83 1009.8
20260905111512 16 88 4.8 0.0 0.00 0.00 0.00 84 1009.6
20260905111011 16 67 6.4 0.0 0.00 0.00 0.00 84 1009.6
20260905110516 17 59 6.4 0.0 0.00 0.00 0.00 84 1009.4
20260905110010 17 65 6.4 0.0 0.00 0.00 0.00 84 1009.4
20260905105510 16 58 6.4 0.0 0.00 0.00 0.00 83 1009.4
20260905105013 16 63 6.4 0.0 0.00 0.00 0.00 84 1009.4
20260905104510 16 60 6.4 0.0 0.00 0.00 0.00 85 1009.3
20260905104009 16 54 6.4 0.0 0.00 0.00 0.00 84 1009.4
20260905103510 16 74 6.4 0.0 0.00 0.00 0.00 84 1009.3